Weather History for Scottsbluff, NE

Change the Weather History Date:

Monday, November 5, 2012

  Actual Average Record
Temperature  
Mean Temperature 52 °F 41 °F  
Max Temperature 65 °F 56 °F 79 °F (1914)
Min Temperature 39 °F 26 °F 3 °F (1967)
Degree Days  
Heating Degree Days 13 24  
Month to date heating degree days 84 116  
Since 1 July heating degree days 683 807  
Cooling Degree Days 0 0  
Month to date cooling degree days 0 0  
Year to date cooling degree days 1208 724  
Growing Degree Days 2 (Base 50)    
Moisture  
Dew Point 34 °F    
Average Humidity 55    
Maximum Humidity 79    
Minimum Humidity 31    
Precipitation  
Precipitation 0.00 in 0.03 in 0.94 in (1922)
Month to date precipitation T 0.14  
Year to date precipitation 6.51 14.76  
Snow  
Snow 0.00 in 0.10 in 6.00 in (1922)
Month to date snowfall 0.0 0.8  
Since 1 July snowfall 6.5 4.0  
Snow Depth 0.00 in    
Sea Level Pressure  
Sea Level Pressure 30.12 in    
Wind  
Wind Speed 6 mph (WNW)    
Max Wind Speed 16 mph    
Max Gust Speed 20 mph    
Visibility 10 miles    
Events      
T = Trace of Precipitation, MM = Missing Value Source: NWS Daily Summary

Daily Weather History Graph

Daily Weather History Graph

Search for Another Location

Airport:

Trip Planner

Search our weather history database for the weather conditions in past years. The results will help you decide how hot, cold, wet, or windy it might be!

Date:

Astronomy

Nov. 05, 2012 Rise Set
Actual Time 6:32 AM MST 4:43 PM MST
Civil Twilight 6:03 AM MST 5:12 PM MST
Nautical Twilight 5:29 AM MST 5:45 PM MST
Astronomical Twilight 4:57 AM MST 6:18 PM MST
Moon 10:23 PM MST (11/5) 11:53 AM MST (11/5)
Length of Visible Light 11h 09m
Length of Day
10h 10m
Waning Gibbous, 62% of the Moon is Illuminated
Nov 5
Waning Gibbous
Nov 6
Last Quarter
Nov 13
New
Nov 20
First Quarter
Nov 28
Full

Hourly Weather History & Observations

Time (MST) Temp. Windchill Dew Point Humidity Pressure Visibility Wind Dir Wind Speed Gust Speed Precip Events Conditions
12:53 AM 39.9 °F 36.7 °F 34.0 °F 79% 30.23 in 10.0 mi West 4.6 mph - N/A   Scattered Clouds
1:53 AM 39.9 °F 35.8 °F 34.0 °F 79% 30.23 in 10.0 mi NW 5.8 mph - N/A   Overcast
2:53 AM 41.0 °F 37.1 °F 34.0 °F 76% 30.22 in 10.0 mi WNW 5.8 mph - N/A   Overcast
3:53 AM 42.1 °F 37.1 °F 35.1 °F 76% 30.22 in 10.0 mi West 8.1 mph - N/A   Overcast
4:53 AM 42.1 °F 40.2 °F 36.0 °F 79% 30.22 in 10.0 mi WNW 3.5 mph - N/A   Overcast
5:53 AM 41.0 °F - 35.1 °F 79% 30.21 in 10.0 mi Calm Calm - N/A   Overcast
6:53 AM 41.0 °F - 35.1 °F 79% 30.22 in 10.0 mi Calm Calm - N/A   Overcast
7:53 AM 44.1 °F 41.5 °F 37.0 °F 76% 30.21 in 10.0 mi North 4.6 mph - N/A   Overcast
8:53 AM 48.0 °F - 37.0 °F 66% 30.19 in 10.0 mi West 3.5 mph - N/A   Overcast
9:53 AM 52.0 °F - 37.0 °F 57% 30.17 in 10.0 mi Calm Calm - N/A   Clear
10:53 AM 57.0 °F - 33.1 °F 40% 30.13 in 10.0 mi WNW 6.9 mph - N/A   Clear
11:53 AM 60.1 °F - 34.0 °F 38% 30.08 in 10.0 mi West 8.1 mph - N/A   Clear
12:53 PM 63.0 °F - 33.1 °F 33% 30.04 in 10.0 mi West 11.5 mph - N/A   Clear
1:53 PM 64.0 °F - 33.1 °F 31% 30.01 in 10.0 mi WNW 15.0 mph - N/A   Clear
2:53 PM 64.0 °F - 33.1 °F 31% 30.01 in 10.0 mi NW 9.2 mph - N/A   Clear
3:53 PM 61.0 °F - 34.0 °F 36% 30.00 in 10.0 mi NW 3.5 mph - N/A   Clear
4:53 PM 54.0 °F - 34.0 °F 47% 30.02 in 10.0 mi Calm Calm - N/A   Clear
5:53 PM 52.0 °F - 34.0 °F 50% 30.04 in 10.0 mi West 3.5 mph - N/A   Clear
6:53 PM 46.0 °F 42.5 °F 33.1 °F 61% 30.07 in 10.0 mi North 6.9 mph - N/A   Clear
7:53 PM 46.9 °F - 33.1 °F 59% 30.06 in 10.0 mi West 4.6 mph - N/A   Clear
8:53 PM 44.1 °F 39.5 °F 34.0 °F 68% 30.08 in 10.0 mi NNW 8.1 mph - N/A   Clear
9:53 PM 43.0 °F 40.3 °F 33.1 °F 68% 30.07 in 10.0 mi WNW 4.6 mph - N/A   Clear
10:53 PM 41.0 °F 36.4 °F 33.1 °F 73% 30.07 in 10.0 mi NW 6.9 mph - N/A   Clear
11:53 PM 43.0 °F 38.2 °F 33.1 °F 68% 30.07 in 10.0 mi NW 8.1 mph - N/A   Clear